RYR3LX LZIB-EPGD

Flight info

Callsign RYR3LX
Flight time 1h 13m
Altitude 36000
Route BERVA P10 MAVOR/N0442F350 DCT UPLAV DCT REGLI/N0441F360 DCT EPOPA L617 ADVAB DCT ATMIR/N0438F350 P733 IRLUN
Aircraft B738/M-SDE1E2E3FGIJ1LRWY/SB1

Departure

Time 2026-05-01 08:27
Airport M. R. Štefánik Airport (LZIB)

Arrival

Time 2026-05-01 09:40
Airport Gdańsk Lech Wałęsa Airport (EPGD)
Time Latitude Longitude Altitude Speed Heading
2026-05-01 07:56 48.16983 17.20179 440 ft 0 kts 314°
2026-05-01 08:19 48.16977 17.20189 429 ft 4 kts 314°
2026-05-01 08:20 48.16958 17.20218 431 ft 4 kts 309°
2026-05-01 08:20 48.16946 17.20248 426 ft 4 kts 256°
2026-05-01 08:20 48.16948 17.20257 428 ft 1 kts 224°
2026-05-01 08:22 48.16946 17.20253 427 ft 3 kts 224°
2026-05-01 08:23 48.16897 17.20182 430 ft 13 kts 224°
2026-05-01 08:23 48.16849 17.20158 436 ft 7 kts 136°
2026-05-01 08:23 48.16811 17.20213 428 ft 10 kts 135°
2026-05-01 08:23 48.16741 17.20317 428 ft 15 kts 136°
2026-05-01 08:24 48.16674 17.20332 430 ft 11 kts 220°
2026-05-01 08:24 48.16605 17.20243 424 ft 16 kts 220°
2026-05-01 08:24 48.16520 17.20134 428 ft 16 kts 220°
2026-05-01 08:24 48.16437 17.20028 427 ft 15 kts 220°
2026-05-01 08:25 48.16358 17.19927 433 ft 15 kts 221°
2026-05-01 08:25 48.16282 17.19829 433 ft 14 kts 220°
2026-05-01 08:25 48.16193 17.19799 425 ft 13 kts 156°
2026-05-01 08:25 48.16126 17.19889 425 ft 13 kts 132°
2026-05-01 08:26 48.16113 17.19992 430 ft 11 kts 55°
2026-05-01 08:26 48.16232 17.20164 431 ft 53 kts 44°
2026-05-01 08:26 48.16679 17.20806 430 ft 122 kts 43°
2026-05-01 08:26 48.17424 17.21882 524 ft 169 kts 43°
2026-05-01 08:27 48.18281 17.23139 1252 ft 173 kts 42°
2026-05-01 08:27 48.19106 17.24331 2273 ft 163 kts 40°
2026-05-01 08:27 48.19908 17.25478 3191 ft 155 kts 41°
2026-05-01 08:27 48.20674 17.26573 4035 ft 155 kts 43°
2026-05-01 08:28 48.21534 17.27799 4348 ft 185 kts 43°
2026-05-01 08:28 48.22648 17.28971 4537 ft 209 kts 21°
2026-05-01 08:28 48.24111 17.29592 4867 ft 225 kts 18°
2026-05-01 08:28 48.25635 17.30221 5470 ft 230 kts 18°
2026-05-01 08:29 48.27181 17.30859 6242 ft 231 kts 18°
2026-05-01 08:29 48.28782 17.31522 6797 ft 246 kts 17°
2026-05-01 08:29 48.30459 17.32217 7470 ft 253 kts 18°
2026-05-01 08:29 48.32162 17.32921 8282 ft 254 kts 18°
2026-05-01 08:30 48.33869 17.33627 9130 ft 255 kts 18°
2026-05-01 08:30 48.35587 17.34338 9946 ft 258 kts 18°
2026-05-01 08:30 48.37352 17.35071 10448 ft 273 kts 18°
2026-05-01 08:30 48.39263 17.35870 10624 ft 296 kts 18°
2026-05-01 08:31 48.41309 17.36723 10990 ft 311 kts 18°
2026-05-01 08:31 48.43418 17.37599 11625 ft 316 kts 18°
2026-05-01 08:31 48.45553 17.38484 12391 ft 319 kts 18°
2026-05-01 08:31 48.47698 17.39374 13221 ft 321 kts 18°
2026-05-01 08:32 48.49860 17.40273 14011 ft 325 kts 18°
2026-05-01 08:32 48.52048 17.41184 14781 ft 327 kts 18°
2026-05-01 08:32 48.54250 17.42103 15524 ft 331 kts 18°
2026-05-01 08:32 48.56484 17.43036 16271 ft 335 kts 18°
2026-05-01 08:33 48.58736 17.43978 17037 ft 338 kts 18°
2026-05-01 08:33 48.61016 17.44932 17739 ft 342 kts 18°
2026-05-01 08:33 48.63321 17.45898 18488 ft 345 kts 18°
2026-05-01 08:33 48.65645 17.46873 19172 ft 348 kts 18°
2026-05-01 08:34 48.67979 17.47852 19844 ft 349 kts 19°
2026-05-01 08:34 48.70325 17.48838 20536 ft 351 kts 19°
2026-05-01 08:34 48.72682 17.49829 21181 ft 353 kts 19°
2026-05-01 08:34 48.75058 17.50829 21808 ft 355 kts 19°
2026-05-01 08:35 48.77445 17.51834 22430 ft 357 kts 19°
2026-05-01 08:35 48.79850 17.52849 23014 ft 360 kts 19°
2026-05-01 08:35 48.82273 17.53872 23611 ft 363 kts 19°
2026-05-01 08:35 48.84728 17.54834 24146 ft 366 kts 18°
2026-05-01 08:36 48.87208 17.55754 24616 ft 368 kts 18°
2026-05-01 08:36 48.89709 17.56666 25073 ft 371 kts 18°
2026-05-01 08:36 48.92229 17.57583 25541 ft 373 kts 18°
2026-05-01 08:36 48.94759 17.58509 26000 ft 375 kts 18°
2026-05-01 08:37 48.97303 17.59445 26442 ft 377 kts 18°
2026-05-01 08:37 48.99863 17.60391 26876 ft 380 kts 18°
2026-05-01 08:37 49.02438 17.61347 27301 ft 382 kts 18°
2026-05-01 08:37 49.05025 17.62309 27713 ft 384 kts 18°
2026-05-01 08:38 49.07630 17.63280 28100 ft 387 kts 18°
2026-05-01 08:38 49.10254 17.64260 28477 ft 390 kts 18°
2026-05-01 08:38 49.12896 17.65248 28856 ft 392 kts 18°
2026-05-01 08:38 49.15550 17.66242 29229 ft 394 kts 18°
2026-05-01 08:39 49.18217 17.67241 29596 ft 396 kts 18°
2026-05-01 08:39 49.20891 17.68243 30089 ft 395 kts 18°
2026-05-01 08:39 49.23548 17.69239 30628 ft 392 kts 18°
2026-05-01 08:39 49.26184 17.70228 31093 ft 389 kts 18°
2026-05-01 08:40 49.31444 17.72207 31767 ft 391 kts 18°
2026-05-01 08:40 49.34083 17.73204 32148 ft 390 kts 18°
2026-05-01 08:40 49.36710 17.74196 32616 ft 387 kts 18°
2026-05-01 08:41 49.39320 17.75183 33052 ft 386 kts 18°
2026-05-01 08:41 49.41926 17.76169 33472 ft 385 kts 18°
2026-05-01 08:41 49.44518 17.77150 33909 ft 383 kts 18°
2026-05-01 08:41 49.47097 17.78128 34316 ft 382 kts 18°
2026-05-01 08:42 49.49674 17.79107 34617 ft 381 kts 18°
2026-05-01 08:42 49.52258 17.80090 34806 ft 384 kts 18°
2026-05-01 08:42 49.54825 17.81069 35027 ft 386 kts 18°
2026-05-01 08:42 49.57425 17.82060 35358 ft 384 kts 17°
2026-05-01 08:43 49.60020 17.83048 35646 ft 384 kts 17°
2026-05-01 08:43 49.62622 17.84042 35871 ft 386 kts 17°
2026-05-01 08:43 49.65230 17.85038 36120 ft 386 kts 17°
2026-05-01 08:43 49.67839 17.86036 36386 ft 386 kts 17°
2026-05-01 08:44 49.73109 17.88057 36392 ft 392 kts 17°
2026-05-01 08:44 49.78371 17.90076 36386 ft 386 kts 17°
2026-05-01 08:45 49.83557 17.92072 36401 ft 384 kts 17°
2026-05-01 08:45 49.88738 17.94072 36401 ft 384 kts 17°
2026-05-01 08:46 49.93922 17.96078 36369 ft 384 kts 17°
2026-05-01 08:46 49.99112 17.98089 36386 ft 384 kts 17°
2026-05-01 08:47 50.04339 17.99916 36375 ft 388 kts 11°
2026-05-01 08:47 50.09723 18.00775 36380 ft 390 kts
2026-05-01 08:48 50.14218 18.01400 36387 ft 390 kts
2026-05-01 08:48 50.19632 18.02181 36383 ft 391 kts
2026-05-01 08:49 50.25048 18.02997 36386 ft 391 kts
2026-05-01 08:49 50.30476 18.03832 36382 ft 392 kts
2026-05-01 08:50 50.35906 18.04674 36383 ft 393 kts
2026-05-01 08:50 50.41345 18.05519 36374 ft 393 kts
2026-05-01 08:51 50.46780 18.06366 36382 ft 392 kts
2026-05-01 08:51 50.52211 18.07214 36384 ft 392 kts
2026-05-01 08:52 50.57638 18.08064 36381 ft 392 kts
2026-05-01 08:52 50.63058 18.08914 36376 ft 391 kts
2026-05-01 08:53 50.68474 18.09766 36371 ft 391 kts
2026-05-01 08:53 50.73880 18.10618 36374 ft 390 kts
2026-05-01 08:54 50.79276 18.11471 36374 ft 390 kts
2026-05-01 08:54 50.84669 18.12325 36343 ft 389 kts
2026-05-01 08:55 50.90053 18.13180 36367 ft 389 kts
2026-05-01 08:55 50.95439 18.14037 36377 ft 389 kts
2026-05-01 08:56 51.00838 18.14899 36377 ft 390 kts
2026-05-01 08:56 51.06248 18.15764 36374 ft 391 kts
2026-05-01 08:57 51.11671 18.16633 36376 ft 392 kts
2026-05-01 08:57 51.17104 18.17506 36372 ft 393 kts
2026-05-01 08:58 51.22547 18.18382 36374 ft 393 kts
2026-05-01 08:58 51.27991 18.19260 36373 ft 393 kts
2026-05-01 08:59 51.33438 18.20141 36375 ft 393 kts
2026-05-01 08:59 51.38878 18.21023 36374 ft 393 kts
2026-05-01 09:00 51.44312 18.21907 36376 ft 392 kts
2026-05-01 09:00 51.49737 18.22791 36378 ft 392 kts
2026-05-01 09:01 51.55153 18.23675 36371 ft 391 kts
2026-05-01 09:01 51.60565 18.24561 36371 ft 391 kts
2026-05-01 09:02 51.65970 18.25448 36378 ft 390 kts
2026-05-01 09:02 51.71371 18.26336 36377 ft 390 kts
2026-05-01 09:03 51.76768 18.27226 36373 ft 390 kts
2026-05-01 09:03 51.82164 18.28119 36345 ft 390 kts
2026-05-01 09:04 51.87519 18.29007 36365 ft 390 kts
2026-05-01 09:04 51.92953 18.29909 36373 ft 390 kts
2026-05-01 09:05 51.98326 18.30803 36368 ft 391 kts
2026-05-01 09:05 52.03747 18.31708 36376 ft 392 kts
2026-05-01 09:06 52.09184 18.32618 36373 ft 393 kts
2026-05-01 09:06 52.14633 18.33532 36378 ft 394 kts
2026-05-01 09:07 52.20014 18.34433 36360 ft 383 kts
2026-05-01 09:07 52.22669 18.34880 35751 ft 384 kts
2026-05-01 09:07 52.25305 18.35324 35389 ft 380 kts
2026-05-01 09:08 52.27926 18.35766 35005 ft 377 kts
2026-05-01 09:08 52.30521 18.36204 34629 ft 373 kts
2026-05-01 09:08 52.33096 18.36640 34236 ft 370 kts
2026-05-01 09:08 52.35649 18.37073 33819 ft 367 kts
2026-05-01 09:09 52.38174 18.37501 33459 ft 363 kts
2026-05-01 09:09 52.40650 18.37936 33131 ft 353 kts
2026-05-01 09:09 52.43068 18.38370 32570 ft 348 kts 10°
2026-05-01 09:09 52.45468 18.38807 31928 ft 346 kts 10°
2026-05-01 09:10 52.47827 18.39237 31544 ft 337 kts 10°
2026-05-01 09:10 52.50131 18.39657 31184 ft 330 kts 10°
2026-05-01 09:10 52.52404 18.40072 30865 ft 328 kts 10°
2026-05-01 09:10 52.54664 18.40486 30536 ft 326 kts 10°
2026-05-01 09:11 52.56906 18.40897 30167 ft 323 kts 10°
2026-05-01 09:11 52.59133 18.41304 29832 ft 320 kts 10°
2026-05-01 09:11 52.61331 18.41706 29493 ft 316 kts 10°
2026-05-01 09:11 52.63502 18.42103 29164 ft 313 kts 11°
2026-05-01 09:12 52.65652 18.42496 28838 ft 309 kts 11°
2026-05-01 09:12 52.67778 18.42886 28514 ft 306 kts 11°
2026-05-01 09:12 52.69883 18.43272 28182 ft 303 kts 11°
2026-05-01 09:12 52.71967 18.43655 27879 ft 300 kts 11°
2026-05-01 09:13 52.74042 18.44037 27552 ft 299 kts 11°
2026-05-01 09:13 52.76111 18.44418 27242 ft 300 kts 11°
2026-05-01 09:13 52.78209 18.44809 26934 ft 309 kts 11°
2026-05-01 09:13 52.80376 18.45213 26601 ft 316 kts 10°
2026-05-01 09:14 52.82558 18.45617 26252 ft 315 kts 10°
2026-05-01 09:14 52.84724 18.46015 25891 ft 312 kts 10°
2026-05-01 09:14 52.86868 18.46408 25591 ft 309 kts 10°
2026-05-01 09:14 52.88995 18.46800 25266 ft 306 kts 10°
2026-05-01 09:15 52.91107 18.47190 24943 ft 304 kts 10°
2026-05-01 09:15 52.93203 18.47578 24625 ft 302 kts 10°
2026-05-01 09:15 52.95285 18.47964 24317 ft 300 kts 10°
2026-05-01 09:15 52.97356 18.48348 24003 ft 298 kts 10°
2026-05-01 09:16 52.99412 18.48730 23646 ft 297 kts 10°
2026-05-01 09:16 53.01455 18.49110 23325 ft 294 kts 10°
2026-05-01 09:16 53.03478 18.49486 23014 ft 291 kts 10°
2026-05-01 09:17 53.07455 18.50227 22408 ft 284 kts 10°
2026-05-01 09:17 53.09411 18.50593 22112 ft 281 kts 10°
2026-05-01 09:17 53.13267 18.51314 21512 ft 276 kts 11°
2026-05-01 09:18 53.15173 18.51671 21229 ft 274 kts 11°
2026-05-01 09:18 53.18931 18.52376 20642 ft 270 kts 11°
2026-05-01 09:19 53.22638 18.53073 20071 ft 266 kts 11°
2026-05-01 09:19 53.24472 18.53418 19784 ft 264 kts 11°
2026-05-01 09:19 53.26292 18.53761 19514 ft 262 kts 11°
2026-05-01 09:20 53.29897 18.54440 18967 ft 259 kts 11°
2026-05-01 09:20 53.33457 18.55113 18386 ft 256 kts 11°
2026-05-01 09:21 53.37005 18.55786 17828 ft 258 kts 11°
2026-05-01 09:21 53.38805 18.56129 17557 ft 265 kts 11°
2026-05-01 09:21 53.42546 18.56843 16960 ft 271 kts 10°
2026-05-01 09:22 53.46259 18.57544 16374 ft 266 kts 10°
2026-05-01 09:22 53.49913 18.58238 15797 ft 262 kts 10°
2026-05-01 09:23 53.51725 18.58582 15512 ft 261 kts 10°
2026-05-01 09:23 53.55308 18.59266 14949 ft 257 kts 10°
2026-05-01 09:24 53.58845 18.59941 14400 ft 255 kts 10°
2026-05-01 09:24 53.60600 18.60277 14113 ft 254 kts 10°
2026-05-01 09:24 53.64089 18.60947 13516 ft 251 kts
2026-05-01 09:25 53.67530 18.61607 12964 ft 247 kts
2026-05-01 09:25 53.70925 18.62259 12421 ft 244 kts
2026-05-01 09:26 53.72609 18.62584 12156 ft 243 kts
2026-05-01 09:26 53.75953 18.63229 11616 ft 241 kts
2026-05-01 09:26 53.77615 18.63550 11352 ft 240 kts
2026-05-01 09:27 53.80909 18.64277 10874 ft 236 kts 12°
2026-05-01 09:27 53.82517 18.64844 10530 ft 238 kts 13°
2026-05-01 09:27 53.84154 18.65454 10119 ft 243 kts 13°
2026-05-01 09:28 53.85801 18.66034 9822 ft 248 kts 12°
2026-05-01 09:28 53.87539 18.66629 9281 ft 262 kts 12°
2026-05-01 09:28 53.89346 18.67263 8972 ft 259 kts 12°
2026-05-01 09:28 53.91069 18.67892 8829 ft 248 kts 13°
2026-05-01 09:29 53.94390 18.69244 8220 ft 243 kts 14°
2026-05-01 09:29 53.96028 18.69971 7850 ft 244 kts 15°
2026-05-01 09:30 53.98748 18.71261 7353 ft 243 kts 16°
2026-05-01 09:30 54.00375 18.72052 7008 ft 244 kts 15°
2026-05-01 09:30 54.03635 18.73597 6383 ft 243 kts 15°
2026-05-01 09:31 54.05266 18.74350 6062 ft 243 kts 14°
2026-05-01 09:31 54.06891 18.75049 5963 ft 236 kts 13°
2026-05-01 09:31 54.09915 18.76249 6070 ft 215 kts 12°
2026-05-01 09:32 54.11366 18.76834 5918 ft 215 kts 13°
2026-05-01 09:32 54.14282 18.78046 5626 ft 211 kts 12°
2026-05-01 09:32 54.15693 18.78320 5688 ft 199 kts
2026-05-01 09:33 54.17084 18.78266 5420 ft 204 kts 358°
2026-05-01 09:33 54.18521 18.78160 5112 ft 210 kts 358°
2026-05-01 09:33 54.21411 18.78312 4674 ft 211 kts
2026-05-01 09:34 54.22908 18.78484 4291 ft 220 kts
2026-05-01 09:34 54.24460 18.78659 3905 ft 225 kts
2026-05-01 09:34 54.26141 18.78663 3641 ft 218 kts 359°
2026-05-01 09:35 54.27638 18.78571 3335 ft 214 kts 355°
2026-05-01 09:35 54.30276 18.76410 2759 ft 213 kts 315°
2026-05-01 09:35 54.31045 18.74280 2530 ft 211 kts 292°
2026-05-01 09:36 54.31506 18.71964 2457 ft 199 kts 290°
2026-05-01 09:36 54.31938 18.69803 2336 ft 189 kts 291°
2026-05-01 09:36 54.32396 18.67794 2303 ft 172 kts 296°
2026-05-01 09:36 54.32880 18.66007 2228 ft 160 kts 298°
2026-05-01 09:37 54.33340 18.64311 2081 ft 152 kts 296°
2026-05-01 09:37 54.34143 18.61088 1935 ft 139 kts 294°
2026-05-01 09:37 54.34498 18.59610 1783 ft 132 kts 295°
2026-05-01 09:38 54.35223 18.56778 1409 ft 129 kts 295°
2026-05-01 09:38 54.35584 18.55369 1177 ft 129 kts 295°
2026-05-01 09:38 54.35942 18.53979 994 ft 125 kts 294°
2026-05-01 09:39 54.36579 18.51391 720 ft 111 kts 294°
2026-05-01 09:39 54.36879 18.50182 614 ft 117 kts 294°
2026-05-01 09:39 54.37192 18.48900 509 ft 116 kts 294°
2026-05-01 09:40 54.37503 18.47660 467 ft 101 kts 291°
2026-05-01 09:40 54.37800 18.46451 457 ft 33 kts 293°
2026-05-01 09:40 54.37887 18.46103 456 ft 30 kts 296°
2026-05-01 09:41 54.37990 18.45857 454 ft 23 kts 316°
2026-05-01 09:41 54.38147 18.45749 453 ft 10 kts 78°
2026-05-01 09:41 54.38126 18.45855 455 ft 12 kts 113°
2026-05-01 09:42 54.38098 18.46003 459 ft 12 kts 85°
2026-05-01 09:42 54.38152 18.46094 458 ft 10 kts 24°
2026-05-01 09:42 54.38149 18.46280 457 ft 10 kts 113°
2026-05-01 09:43 54.38107 18.46474 458 ft 2 kts 67°
2026-05-01 09:43 54.38126 18.46489 458 ft 7 kts 22°
2026-05-01 09:43 54.38147 18.46504 459 ft 0 kts 21°